SVR3506 LTAI-URSS

Flight info

Callsign SVR3506
Flight time N/A
Altitude 35000
Route DCT MUT UA285 SELVI/N0459F350 UA285 GEM UT243 CRM UG901 BALUM/K0845F350 G901 KEPOL G487 DIRUN
Aircraft A321/M-SDE3FGHIRWY/LB1

Departure

Time 2026-05-05 09:59
Airport Antalya International Airport (LTAI)

Arrival

Time N/A
Airport Sochi International Airport (URSS)
Time Latitude Longitude Altitude Speed Heading
2026-05-05 09:43 36.89704 30.80160 192 ft 0 kts 352°
2026-05-05 09:50 36.89703 30.80160 192 ft 2 kts 352°
2026-05-05 09:50 36.89678 30.80166 207 ft 4 kts 346°
2026-05-05 09:51 36.89652 30.80175 202 ft 4 kts 341°
2026-05-05 09:51 36.89626 30.80186 207 ft 4 kts 352°
2026-05-05 09:51 36.89607 30.80185 201 ft 4 kts 58°
2026-05-05 09:51 36.89598 30.80159 204 ft 4 kts 96°
2026-05-05 09:52 36.89606 30.80128 198 ft 4 kts 102°
2026-05-05 09:52 36.89607 30.80121 192 ft 0 kts 97°
2026-05-05 09:54 36.89607 30.80127 192 ft 3 kts 97°
2026-05-05 09:54 36.89600 30.80193 192 ft 12 kts 97°
2026-05-05 09:55 36.89588 30.80325 198 ft 18 kts 96°
2026-05-05 09:55 36.89575 30.80472 198 ft 18 kts 96°
2026-05-05 09:55 36.89562 30.80619 202 ft 14 kts 96°
2026-05-05 09:55 36.89495 30.80682 197 ft 14 kts 184°
2026-05-05 09:56 36.89395 30.80668 192 ft 15 kts 186°
2026-05-05 09:56 36.89290 30.80654 206 ft 16 kts 186°
2026-05-05 09:56 36.89172 30.80637 192 ft 19 kts 187°
2026-05-05 09:56 36.89016 30.80615 203 ft 25 kts 186°
2026-05-05 09:57 36.88824 30.80588 197 ft 30 kts 186°
2026-05-05 09:57 36.88608 30.80558 205 ft 33 kts 187°
2026-05-05 09:57 36.88375 30.80527 193 ft 34 kts 186°
2026-05-05 09:57 36.88161 30.80500 197 ft 25 kts 185°
2026-05-05 09:58 36.88047 30.80562 198 ft 15 kts 95°
2026-05-05 09:58 36.88087 30.80667 191 ft 16 kts 61°
2026-05-05 09:58 36.88188 30.80739 199 ft 20 kts
2026-05-05 09:58 36.88388 30.80766 203 ft 52 kts
2026-05-05 09:59 36.88980 30.80847 205 ft 114 kts
2026-05-05 09:59 36.89933 30.80984 196 ft 159 kts
2026-05-05 09:59 36.91071 30.81162 647 ft 168 kts
2026-05-05 09:59 36.92207 30.81553 1259 ft 174 kts 22°
2026-05-05 10:00 36.93348 30.82191 1492 ft 190 kts 21°
2026-05-05 10:00 36.94662 30.82848 1691 ft 209 kts 21°
2026-05-05 10:00 36.96038 30.83550 2132 ft 219 kts 22°
2026-05-05 10:00 36.97408 30.84332 2966 ft 215 kts 33°
2026-05-05 10:01 36.98407 30.85721 3655 ft 223 kts 64°
2026-05-05 10:01 36.98727 30.87714 4003 ft 251 kts 94°
2026-05-05 10:01 36.98667 30.88416 4085 ft 260 kts 96°
2026-05-05 10:02 36.98579 30.89206 4234 ft 266 kts 98°
2026-05-05 10:02 36.98327 30.91556 4936 ft 272 kts 98°
2026-05-05 10:02 36.98085 30.93920 5742 ft 276 kts 93°
2026-05-05 10:02 36.97878 30.96329 6611 ft 274 kts 92°
2026-05-05 10:03 36.97761 30.97875 7116 ft 276 kts 92°
2026-05-05 10:03 36.97702 30.98626 7353 ft 277 kts 93°
2026-05-05 10:03 36.97579 31.00221 7832 ft 279 kts 92°
2026-05-05 10:03 36.97397 31.02639 8575 ft 281 kts 92°
2026-05-05 10:04 36.97211 31.05085 9272 ft 285 kts 93°
2026-05-05 10:04 36.97017 31.07555 9973 ft 287 kts 93°
2026-05-05 10:04 36.96883 31.10092 10311 ft 302 kts 87°
2026-05-05 10:04 36.96897 31.12816 10437 ft 323 kts 87°
2026-05-05 10:05 36.96909 31.15706 10562 ft 342 kts 87°
2026-05-05 10:05 36.96917 31.18741 10847 ft 354 kts 88°
2026-05-05 10:05 36.96920 31.21849 11388 ft 359 kts 87°
2026-05-05 10:05 36.96918 31.24990 11969 ft 363 kts 87°
2026-05-05 10:06 36.96916 31.28164 12566 ft 367 kts 87°
2026-05-05 10:06 36.96917 31.31374 13157 ft 370 kts 87°
2026-05-05 10:06 36.96887 31.34615 13728 ft 375 kts 89°
2026-05-05 10:06 36.96773 31.37896 14220 ft 379 kts 90°
2026-05-05 10:07 36.96609 31.41197 14688 ft 383 kts 90°
2026-05-05 10:07 36.96425 31.44541 15157 ft 386 kts 90°
2026-05-05 10:07 36.96239 31.47893 15644 ft 389 kts 90°
2026-05-05 10:07 36.96057 31.51291 16109 ft 392 kts 90°
2026-05-05 10:08 36.95882 31.54707 16559 ft 395 kts 90°
2026-05-05 10:08 36.95713 31.58183 16988 ft 396 kts 90°
2026-05-05 10:08 36.95548 31.61642 17398 ft 400 kts 89°
2026-05-05 10:08 36.95384 31.65126 17835 ft 403 kts 89°
2026-05-05 10:09 36.95217 31.68630 18252 ft 406 kts 89°
2026-05-05 10:09 36.95046 31.72160 18604 ft 408 kts 89°
2026-05-05 10:09 36.94870 31.75712 18938 ft 411 kts 89°
2026-05-05 10:09 36.94690 31.79300 19263 ft 413 kts 89°
2026-05-05 10:10 36.94509 31.82902 19624 ft 415 kts 88°
2026-05-05 10:10 36.94326 31.86517 19927 ft 419 kts 88°
2026-05-05 10:10 36.94141 31.90215 20245 ft 422 kts 88°
2026-05-05 10:10 36.93958 31.93880 20597 ft 425 kts 87°
2026-05-05 10:11 36.93770 31.97587 20954 ft 428 kts 87°
2026-05-05 10:11 36.93580 32.01366 21238 ft 431 kts 87°
2026-05-05 10:11 36.93390 32.05123 21561 ft 435 kts 86°
2026-05-05 10:11 36.93195 32.08904 21928 ft 437 kts 86°
2026-05-05 10:12 36.92995 32.12713 22256 ft 440 kts 86°
2026-05-05 10:12 36.92793 32.16506 22593 ft 443 kts 86°
2026-05-05 10:12 36.92586 32.20364 22945 ft 447 kts 86°
2026-05-05 10:12 36.92373 32.24309 23298 ft 450 kts 85°
2026-05-05 10:13 36.92166 32.28220 23631 ft 453 kts 85°
2026-05-05 10:13 36.91958 32.32167 23912 ft 455 kts 85°
2026-05-05 10:13 36.91747 32.36127 24197 ft 458 kts 86°
2026-05-05 10:13 36.91529 32.40099 24503 ft 459 kts 86°
2026-05-05 10:14 36.91309 32.44044 24805 ft 461 kts 86°
2026-05-05 10:14 36.91083 32.48051 25106 ft 462 kts 86°
2026-05-05 10:14 36.90856 32.52067 25401 ft 464 kts 86°
2026-05-05 10:14 36.90630 32.56145 25709 ft 465 kts 86°
2026-05-05 10:15 36.90409 32.60139 26033 ft 467 kts 86°
2026-05-05 10:15 36.90179 32.64247 26330 ft 468 kts 86°
2026-05-05 10:15 36.89948 32.68261 26648 ft 470 kts 86°
2026-05-05 10:15 36.89707 32.72390 26949 ft 472 kts 86°
2026-05-05 10:16 36.89468 32.76488 27258 ft 473 kts 86°
2026-05-05 10:16 36.89230 32.80596 27527 ft 475 kts 86°
2026-05-05 10:16 36.88992 32.84708 27763 ft 477 kts 86°
2026-05-05 10:16 36.88752 32.88843 27992 ft 478 kts 86°
2026-05-05 10:17 36.88509 32.92996 28227 ft 481 kts 86°
2026-05-05 10:17 36.88265 32.97170 28426 ft 483 kts 86°
2026-05-05 10:17 36.88015 33.01348 28629 ft 484 kts 86°
2026-05-05 10:17 36.87759 33.05558 28876 ft 484 kts 86°
2026-05-05 10:18 36.87502 33.09745 29116 ft 484 kts 87°
2026-05-05 10:18 36.87243 33.13948 29335 ft 484 kts 87°
2026-05-05 10:18 36.87009 33.18135 29508 ft 482 kts 84°
2026-05-05 10:18 36.87176 33.22281 29724 ft 472 kts 74°
2026-05-05 10:19 36.87867 33.26238 29884 ft 462 kts 65°
2026-05-05 10:19 36.89035 33.29931 30068 ft 454 kts 56°
2026-05-05 10:19 36.90627 33.33299 30222 ft 446 kts 47°
2026-05-05 10:19 36.92578 33.36278 30344 ft 440 kts 39°
2026-05-05 10:20 36.94793 33.38889 30495 ft 438 kts 36°
2026-05-05 10:20 36.97045 33.41462 30647 ft 439 kts 36°
2026-05-05 10:20 36.99305 33.44051 30821 ft 441 kts 37°
2026-05-05 10:20 37.01570 33.46648 30965 ft 442 kts 37°
2026-05-05 10:21 37.03837 33.49258 31130 ft 443 kts 37°
2026-05-05 10:21 37.06106 33.51872 31292 ft 444 kts 37°
2026-05-05 10:21 37.08378 33.54490 31464 ft 445 kts 37°
2026-05-05 10:21 37.10657 33.57119 31624 ft 446 kts 37°
2026-05-05 10:22 37.12943 33.59752 31787 ft 446 kts 38°
2026-05-05 10:22 37.15234 33.62392 31946 ft 447 kts 38°
2026-05-05 10:22 37.17522 33.65037 32108 ft 448 kts 38°
2026-05-05 10:22 37.19815 33.67685 32288 ft 449 kts 38°
2026-05-05 10:23 37.22117 33.70346 32462 ft 449 kts 38°
2026-05-05 10:23 37.24414 33.73006 32647 ft 450 kts 38°
2026-05-05 10:23 37.26715 33.75679 32822 ft 451 kts 39°
2026-05-05 10:23 37.29013 33.78350 33001 ft 451 kts 39°
2026-05-05 10:24 37.31318 33.81029 33162 ft 452 kts 39°
2026-05-05 10:24 37.33633 33.83719 33355 ft 452 kts 39°
2026-05-05 10:24 37.35939 33.86400 33523 ft 453 kts 39°
2026-05-05 10:24 37.38251 33.89094 33688 ft 453 kts 39°
2026-05-05 10:25 37.40565 33.91790 33859 ft 453 kts 39°
2026-05-05 10:25 37.42881 33.94490 33999 ft 453 kts 39°
2026-05-05 10:25 37.47483 33.99865 34021 ft 450 kts 39°
2026-05-05 10:26 37.52075 34.05238 34021 ft 450 kts 39°
2026-05-05 10:26 37.56681 34.10644 34023 ft 451 kts 40°
2026-05-05 10:27 37.61277 34.16060 34014 ft 452 kts 40°
2026-05-05 10:27 37.65857 34.21460 34002 ft 453 kts 40°
2026-05-05 10:28 37.70478 34.26918 33977 ft 454 kts 40°
2026-05-05 10:28 37.75096 34.32383 33962 ft 454 kts 40°
2026-05-05 10:29 37.79713 34.37862 33947 ft 455 kts 40°
2026-05-05 10:29 37.84340 34.43344 33948 ft 455 kts 40°
2026-05-05 10:30 37.88938 34.48799 33950 ft 456 kts 41°
2026-05-05 10:30 37.92814 34.53412 33954 ft 457 kts 41°
2026-05-05 10:31 37.97449 34.58929 33968 ft 457 kts 41°
2026-05-05 10:31 38.02101 34.64471 33980 ft 458 kts 41°
2026-05-05 10:32 38.06746 34.70018 33985 ft 458 kts 41°
2026-05-05 10:32 38.11400 34.75577 33998 ft 458 kts 41°
2026-05-05 10:33 38.16017 34.81109 33991 ft 458 kts 41°
2026-05-05 10:33 38.20663 34.86697 33985 ft 458 kts 41°
2026-05-05 10:34 38.25301 34.92274 33973 ft 458 kts 42°
2026-05-05 10:34 38.29956 34.97874 33974 ft 459 kts 42°
2026-05-05 10:35 38.34582 35.03432 33968 ft 460 kts 42°
2026-05-05 10:35 38.39294 35.08994 33958 ft 459 kts 40°
2026-05-05 10:36 38.44160 35.14233 33952 ft 460 kts 38°
2026-05-05 10:36 38.49129 35.19412 33953 ft 460 kts 38°
2026-05-05 10:37 38.54024 35.24713 33954 ft 461 kts 41°
2026-05-05 10:37 38.58605 35.30460 33963 ft 462 kts 45°
2026-05-05 10:38 38.63032 35.36362 33964 ft 462 kts 45°
2026-05-05 10:38 38.67534 35.42243 33969 ft 463 kts 44°
2026-05-05 10:39 38.71170 35.46890 33973 ft 463 kts 44°
2026-05-05 10:39 38.76389 35.53522 33970 ft 463 kts 44°
2026-05-05 10:40 38.80962 35.59366 33963 ft 463 kts 44°
2026-05-05 10:40 38.85511 35.65230 33958 ft 464 kts 44°
2026-05-05 10:41 38.90067 35.71113 33945 ft 464 kts 44°
2026-05-05 10:41 38.94594 35.76973 33940 ft 464 kts 44°
2026-05-05 10:42 38.98352 35.81719 33889 ft 465 kts 43°
2026-05-05 10:43 39.02790 35.87193 33911 ft 466 kts 43°
2026-05-05 10:43 39.07477 35.92967 33925 ft 466 kts 43°
2026-05-05 10:44 39.12156 35.98767 33930 ft 466 kts 40°
2026-05-05 10:44 39.17531 36.03259 33931 ft 463 kts 22°
2026-05-05 10:45 39.23725 36.05667 33934 ft 462 kts 13°
2026-05-05 10:45 39.29956 36.07773 33938 ft 462 kts 14°
2026-05-05 10:46 39.36188 36.09904 33939 ft 462 kts 14°
2026-05-05 10:46 39.42419 36.12036 33948 ft 463 kts 14°
2026-05-05 10:47 39.48701 36.14179 33953 ft 462 kts 14°
2026-05-05 10:47 39.54921 36.16303 33961 ft 462 kts 14°
2026-05-05 10:48 39.61137 36.18437 33956 ft 462 kts 14°
2026-05-05 10:48 39.67358 36.20580 33957 ft 462 kts 14°
2026-05-05 10:49 39.73576 36.22723 33945 ft 462 kts 14°
2026-05-05 10:49 39.79795 36.24854 33949 ft 462 kts 14°
2026-05-05 10:50 39.86024 36.26994 33959 ft 462 kts 14°
2026-05-05 10:50 39.92351 36.28516 33960 ft 461 kts
2026-05-05 10:51 39.98690 36.29859 33961 ft 461 kts
2026-05-05 10:51 40.05035 36.31211 33967 ft 461 kts
2026-05-05 10:52 40.11370 36.32557 33968 ft 461 kts
2026-05-05 10:52 40.17710 36.33905 33963 ft 460 kts
2026-05-05 10:53 40.24046 36.35253 33958 ft 459 kts
2026-05-05 10:53 40.30323 36.36604 33956 ft 459 kts
2026-05-05 10:54 40.36671 36.37910 33955 ft 458 kts
2026-05-05 10:54 40.43006 36.39057 33960 ft 458 kts
2026-05-05 10:55 40.49295 36.40188 33952 ft 458 kts
2026-05-05 10:55 40.55636 36.41372 33968 ft 458 kts
2026-05-05 10:56 40.61992 36.42587 33984 ft 458 kts
2026-05-05 10:56 40.68265 36.43783 34008 ft 457 kts
2026-05-05 10:57 40.74566 36.44971 34007 ft 457 kts
2026-05-05 10:57 40.79881 36.45976 34013 ft 456 kts
2026-05-05 10:58 40.86175 36.47176 34017 ft 456 kts
2026-05-05 10:58 40.92478 36.48368 34024 ft 456 kts
2026-05-05 10:59 40.98725 36.49548 34033 ft 456 kts
2026-05-05 10:59 41.05056 36.50751 34038 ft 455 kts
2026-05-05 11:00 41.11280 36.51950 34034 ft 455 kts
2026-05-05 11:00 41.17625 36.53169 34035 ft 455 kts
2026-05-05 11:01 41.23869 36.54414 34032 ft 455 kts 12°
2026-05-05 11:01 41.29760 36.57356 34034 ft 453 kts 30°
2026-05-05 11:02 41.35255 36.61598 34033 ft 454 kts 30°
2026-05-05 11:02 41.40689 36.65779 34033 ft 454 kts 30°
2026-05-05 11:03 41.46153 36.69998 34034 ft 454 kts 30°
2026-05-05 11:03 41.51605 36.74225 34033 ft 454 kts 31°
2026-05-05 11:04 41.57111 36.78489 34031 ft 454 kts 31°
2026-05-05 11:04 41.62567 36.82735 34031 ft 454 kts 31°
2026-05-05 11:05 41.68019 36.86991 34032 ft 453 kts 31°
2026-05-05 11:05 41.73468 36.91246 34030 ft 453 kts 31°
2026-05-05 11:06 41.78912 36.95510 34031 ft 453 kts 31°
2026-05-05 11:06 41.84363 36.99785 34032 ft 453 kts 31°
2026-05-05 11:07 41.89807 37.04071 34030 ft 453 kts 31°
2026-05-05 11:07 41.95249 37.08351 34035 ft 453 kts 31°
2026-05-05 11:08 42.00688 37.12621 34031 ft 452 kts 31°
2026-05-05 11:08 42.06123 37.16893 34038 ft 452 kts 31°
2026-05-05 11:09 42.11518 37.21146 34037 ft 452 kts 31°
2026-05-05 11:09 42.16935 37.25428 34035 ft 451 kts 31°
2026-05-05 11:10 42.22346 37.29723 34033 ft 451 kts 31°
2026-05-05 11:10 42.27796 37.34056 34037 ft 451 kts 31°
2026-05-05 11:11 42.33165 37.38331 34033 ft 450 kts 32°
2026-05-05 11:11 42.38558 37.42631 34042 ft 449 kts 32°
2026-05-05 11:12 42.43943 37.46931 34044 ft 449 kts 32°
2026-05-05 11:12 42.49318 37.51232 34041 ft 448 kts 32°
2026-05-05 11:13 42.54550 37.55422 34044 ft 448 kts 32°
2026-05-05 11:13 42.59885 37.59709 34038 ft 448 kts 32°
2026-05-05 11:14 42.65245 37.64030 33806 ft 449 kts 32°
2026-05-05 11:14 42.67986 37.66248 32589 ft 457 kts 32°
2026-05-05 11:14 42.70705 37.68534 31649 ft 459 kts 34°
2026-05-05 11:14 42.73378 37.70923 30747 ft 460 kts 35°
2026-05-05 11:15 42.76033 37.73396 29613 ft 464 kts 36°
2026-05-05 11:15 42.78676 37.75907 28589 ft 464 kts 36°
2026-05-05 11:15 42.81317 37.78420 27834 ft 458 kts 36°
2026-05-05 11:15 42.83910 37.80862 27230 ft 450 kts 36°
2026-05-05 11:16 42.86477 37.83256 26592 ft 444 kts 36°
2026-05-05 11:16 42.89027 37.85614 25962 ft 439 kts 36°
2026-05-05 11:16 42.91544 37.87928 25362 ft 434 kts 36°
2026-05-05 11:16 42.94031 37.90217 24755 ft 428 kts 36°
2026-05-05 11:17 42.96487 37.92484 24166 ft 423 kts 36°
2026-05-05 11:17 42.98918 37.94738 23585 ft 419 kts 36°
2026-05-05 11:17 43.01162 37.97209 22948 ft 410 kts 46°
2026-05-05 11:17 43.03007 38.00060 22440 ft 400 kts 55°
2026-05-05 11:18 43.04474 38.03233 21918 ft 390 kts 64°
2026-05-05 11:18 43.05552 38.06586 21434 ft 380 kts 70°
2026-05-05 11:18 43.06517 38.09915 20972 ft 373 kts 70°
2026-05-05 11:18 43.07473 38.13197 20535 ft 371 kts 69°
2026-05-05 11:19 43.08334 38.16515 20086 ft 369 kts 76°
2026-05-05 11:19 43.08807 38.19996 19653 ft 379 kts 85°
2026-05-05 11:19 43.09021 38.23628 19209 ft 386 kts 86°
2026-05-05 11:19 43.09235 38.27307 18755 ft 387 kts 86°
2026-05-05 11:20 43.09451 38.30976 18304 ft 385 kts 86°
2026-05-05 11:20 43.09664 38.34621 17814 ft 383 kts 86°
2026-05-05 11:20 43.09877 38.38246 17370 ft 381 kts 86°
2026-05-05 11:20 43.10089 38.41848 16925 ft 379 kts 86°
2026-05-05 11:21 43.10298 38.45433 16487 ft 377 kts 86°
2026-05-05 11:21 43.10502 38.49006 16046 ft 375 kts 86°
2026-05-05 11:21 43.10702 38.52547 15607 ft 373 kts 86°
2026-05-05 11:21 43.10900 38.56083 15172 ft 371 kts 87°
2026-05-05 11:22 43.11096 38.59599 14735 ft 369 kts 87°
2026-05-05 11:22 43.11290 38.63092 14304 ft 367 kts 87°
2026-05-05 11:22 43.11479 38.66569 13885 ft 365 kts 87°
2026-05-05 11:22 43.11665 38.69967 13436 ft 363 kts 87°
2026-05-05 11:23 43.11856 38.73437 12998 ft 362 kts 87°
2026-05-05 11:23 43.12046 38.76862 12583 ft 360 kts 87°
2026-05-05 11:23 43.12234 38.80265 12166 ft 358 kts 86°
2026-05-05 11:23 43.12420 38.83706 11743 ft 356 kts 87°
2026-05-05 11:24 43.12600 38.87078 11326 ft 355 kts 87°
2026-05-05 11:24 43.12717 38.89312 11051 ft 353 kts 87°
2026-05-05 11:24 43.12896 38.92688 10702 ft 346 kts 87°
2026-05-05 11:24 43.13066 38.95855 10576 ft 330 kts 87°
2026-05-05 11:25 43.13233 38.98956 10448 ft 315 kts 87°
2026-05-05 11:25 43.13391 39.01880 10321 ft 301 kts 87°
2026-05-05 11:25 43.13538 39.04661 10086 ft 293 kts 87°
2026-05-05 11:25 43.13681 39.07447 9889 ft 288 kts 87°
2026-05-05 11:26 43.13819 39.10150 9757 ft 288 kts 87°
2026-05-05 11:26 43.13960 39.12925 9622 ft 288 kts 87°
2026-05-05 11:26 43.14097 39.15629 9414 ft 287 kts 87°
2026-05-05 11:26 43.14236 39.18392 9131 ft 286 kts 87°
2026-05-05 11:27 43.14372 39.21105 8846 ft 285 kts 86°
2026-05-05 11:27 43.14506 39.23778 8553 ft 284 kts 86°
2026-05-05 11:27 43.14640 39.26476 8268 ft 283 kts 86°
2026-05-05 11:27 43.14802 39.29187 7977 ft 282 kts 81°
2026-05-05 11:28 43.15296 39.31742 7699 ft 281 kts 71°
2026-05-05 11:28 43.15913 39.34310 7414 ft 279 kts 71°
2026-05-05 11:28 43.16510 39.36836 7128 ft 278 kts 71°
2026-05-05 11:28 43.17092 39.39328 6836 ft 277 kts 71°
2026-05-05 11:29 43.17681 39.41867 6562 ft 276 kts 71°
2026-05-05 11:29 43.18255 39.44341 6288 ft 275 kts 71°
2026-05-05 11:29 43.18841 39.46861 5998 ft 273 kts 71°
2026-05-05 11:29 43.19420 39.49339 5736 ft 272 kts 71°
2026-05-05 11:30 43.19996 39.51805 5486 ft 271 kts 71°
2026-05-05 11:30 43.20569 39.54266 5238 ft 270 kts 71°
2026-05-05 11:30 43.21138 39.56705 4982 ft 268 kts 71°
2026-05-05 11:30 43.21695 39.59105 4737 ft 267 kts 71°
2026-05-05 11:31 43.22264 39.61559 4476 ft 266 kts 71°
2026-05-05 11:31 43.22819 39.63949 4234 ft 265 kts 71°
2026-05-05 11:31 43.23379 39.66363 3980 ft 265 kts 71°
2026-05-05 11:31 43.23918 39.68680 3739 ft 264 kts 71°
2026-05-05 11:32 43.24474 39.71083 3542 ft 263 kts 71°
2026-05-05 11:32 43.25026 39.73473 3482 ft 262 kts 71°
2026-05-05 11:32 43.25577 39.75865 3484 ft 263 kts 71°
2026-05-05 11:32 43.26129 39.78260 3485 ft 263 kts 71°
2026-05-05 11:33 43.26780 39.80590 3484 ft 258 kts 59°
2026-05-05 11:33 43.27831 39.82481 3346 ft 244 kts 41°
2026-05-05 11:33 43.29195 39.83798 3089 ft 237 kts 27°
2026-05-05 11:33 43.30617 39.84858 2811 ft 228 kts 27°
2026-05-05 11:34 43.31929 39.85836 2524 ft 221 kts 27°
2026-05-05 11:34 43.33266 39.86835 2244 ft 212 kts 27°
2026-05-05 11:34 43.34542 39.87790 1985 ft 204 kts 27°
2026-05-05 11:34 43.35757 39.88700 1728 ft 196 kts 26°
2026-05-05 11:35 43.36849 39.89518 1498 ft 184 kts 26°
2026-05-05 11:35 43.37762 39.90205 1285 ft 170 kts 25°
2026-05-05 11:35 43.38759 39.90952 1072 ft 157 kts 25°
2026-05-05 11:35 43.39683 39.91629 854 ft 152 kts 21°
2026-05-05 11:36 43.40563 39.92283 696 ft 148 kts 26°
2026-05-05 11:36 43.41478 39.92981 486 ft 148 kts 25°
2026-05-05 11:36 43.42380 39.93657 329 ft 147 kts 25°
2026-05-05 11:36 43.43270 39.94333 133 ft 146 kts 28°
2026-05-05 11:37 43.44035 39.94884 119 ft 124 kts 21°